Time,TemperatureF,DewpointF,PressureIn,WindDirection,WindDirectionDegrees,WindSpeedMPH,WindSpeedGustMPH,Humidity,HourlyPrecipIn,Conditions,Clouds,dailyrainin,SoftwareType,DateUTC
2013-09-24 00:01:00,47.9,38.2,31.82,NW,312,0.0,0.0,69,0.00,,---,0.00,VWS V14.01,2013-09-24 07:01:00,
2013-09-24 00:06:00,47.7,38.0,30.14,West,281,0.0,0.0,69,0.00,,---,0.00,VWS V14.01,2013-09-24 07:06:00,
2013-09-24 00:11:00,47.9,37.9,31.80,West,279,0.0,0.0,68,0.00,,---,0.00,VWS V14.01,2013-09-24 07:11:00,
2013-09-24 00:16:00,47.9,38.2,31.80,West,277,0.0,0.0,69,0.00,,---,0.00,VWS V14.01,2013-09-24 07:16:00,
2013-09-24 00:21:00,47.7,38.0,31.80,South,189,0.0,0.0,69,0.00,,---,0.00,VWS V14.01,2013-09-24 07:21:00,
2013-09-24 00:26:00,47.7,38.0,28.45,SSW,205,0.0,0.0,69,0.00,,---,0.00,VWS V14.01,2013-09-24 07:26:00,
2013-09-24 00:31:00,47.7,38.0,28.45,South,187,0.0,0.0,69,0.00,,---,0.00,VWS V14.01,2013-09-24 07:31:00,
2013-09-24 00:36:00,47.7,38.4,28.45,SSW,193,0.0,0.0,70,0.00,,---,0.00,VWS V14.01,2013-09-24 07:36:00,
2013-09-24 00:42:00,47.6,38.7,28.45,SSW,212,0.0,0.0,71,0.00,,---,0.00,VWS V14.01,2013-09-24 07:42:00,
2013-09-24 00:47:00,47.6,38.7,28.45,SSW,213,0.0,0.0,71,0.00,,---,0.00,VWS V14.01,2013-09-24 07:47:00,
2013-09-24 00:52:00,47.6,38.7,28.45,SW,218,0.0,0.0,71,0.00,,---,0.00,VWS V14.01,2013-09-24 07:52:00,
2013-09-24 00:57:00,47.6,38.7,28.45,SW,219,0.0,0.0,71,0.00,,---,0.00,VWS V14.01,2013-09-24 07:57:00,
2013-09-24 01:02:00,47.6,38.7,28.45,SW,232,0.0,0.0,71,0.00,,---,0.00,VWS V14.01,2013-09-24 08:02:00,
2013-09-24 01:07:00,47.7,38.4,30.12,SW,227,0.0,0.0,70,0.00,,---,0.00,VWS V14.01,2013-09-24 08:07:00,
2013-09-24 01:12:00,48.0,38.3,28.45,WSW,243,0.0,0.0,69,0.00,,---,0.00,VWS V14.01,2013-09-24 08:12:00,
2013-09-24 01:17:00,48.2,38.2,30.12,WSW,246,0.0,0.0,68,0.00,,---,0.00,VWS V14.01,2013-09-24 08:17:00,
2013-09-24 01:22:00,48.3,38.2,30.12,SW,225,0.0,0.0,68,0.00,,---,0.00,VWS V14.01,2013-09-24 08:22:00,
2013-09-24 01:27:00,48.3,38.6,30.12,South,190,0.0,0.0,69,0.00,,---,0.00,VWS V14.01,2013-09-24 08:27:00,
2013-09-24 01:32:00,48.2,38.5,30.12,SSW,208,0.0,0.0,69,0.00,,---,0.00,VWS V14.01,2013-09-24 08:32:00,
2013-09-24 01:37:00,48.0,38.7,30.12,SSW,194,0.0,0.0,70,0.00,,---,0.00,VWS V14.01,2013-09-24 08:37:00,
2013-09-24 01:42:00,47.7,38.8,30.12,SSW,213,0.0,0.0,71,0.00,,---,0.00,VWS V14.01,2013-09-24 08:42:00,
2013-09-24 01:47:00,47.4,38.8,31.80,South,190,0.0,0.0,72,0.00,,---,0.00,VWS V14.01,2013-09-24 08:47:00,
2013-09-24 01:52:00,47.3,38.7,31.80,SSW,202,0.0,0.0,72,0.00,,---,0.00,VWS V14.01,2013-09-24 08:52:00,
2013-09-24 01:57:00,47.3,39.1,31.80,SSW,198,0.0,0.0,73,0.00,,---,0.00,VWS V14.01,2013-09-24 08:57:00,
2013-09-24 02:02:00,47.1,38.9,31.80,SSW,213,0.0,0.0,73,0.00,,---,0.00,VWS V14.01,2013-09-24 09:02:00,
2013-09-24 02:07:00,47.1,39.2,31.80,WSW,243,0.0,0.0,74,0.00,,---,0.00,VWS V14.01,2013-09-24 09:07:00,
2013-09-24 02:13:00,47.1,39.2,31.80,SSW,212,0.0,0.0,74,0.00,,---,0.00,VWS V14.01,2013-09-24 09:13:00,
2013-09-24 02:18:00,47.1,39.2,31.80,SSW,196,0.0,0.0,74,0.00,,---,0.00,VWS V14.01,2013-09-24 09:18:00,
2013-09-24 02:23:00,47.1,39.2,31.80,South,169,0.0,0.0,74,0.00,,---,0.00,VWS V14.01,2013-09-24 09:23:00,
2013-09-24 02:28:00,47.0,39.2,31.80,SSW,201,0.0,0.0,74,0.00,,---,0.00,VWS V14.01,2013-09-24 09:28:00,
2013-09-24 02:33:00,46.8,39.0,31.80,SSW,207,0.0,0.0,74,0.00,,---,0.00,VWS V14.01,2013-09-24 09:33:00,
2013-09-24 02:38:00,46.8,39.3,27.96,SSW,211,0.0,0.0,75,0.00,,---,0.00,VWS V14.01,2013-09-24 09:38:00,
2013-09-24 02:43:00,46.7,38.9,29.63,SW,229,0.0,0.0,74,0.00,,---,0.00,VWS V14.01,2013-09-24 09:43:00,
2013-09-24 02:48:00,46.5,38.7,29.63,SSW,204,0.0,0.0,74,0.00,,---,0.00,VWS V14.01,2013-09-24 09:48:00,
2013-09-24 02:53:00,46.4,38.9,31.30,SSW,204,0.0,0.0,75,0.00,,---,0.00,VWS V14.01,2013-09-24 09:53:00,
2013-09-24 02:58:00,46.1,38.6,31.30,SSW,204,0.0,0.0,75,0.00,,---,0.00,VWS V14.01,2013-09-24 09:58:00,
2013-09-24 03:03:00,46.0,38.9,31.30,SSW,204,0.0,0.0,76,0.00,,---,0.00,VWS V14.01,2013-09-24 10:03:00,
2013-09-24 03:08:00,45.8,38.7,31.30,SSW,204,0.0,0.0,76,0.00,,---,0.00,VWS V14.01,2013-09-24 10:08:00,
2013-09-24 03:13:00,45.7,38.6,22.44,SSW,204,0.0,0.0,76,0.00,,---,0.00,VWS V14.01,2013-09-24 10:13:00,
2013-09-24 03:18:00,45.5,38.7,22.44,SSW,205,0.0,0.0,77,0.00,,---,0.00,VWS V14.01,2013-09-24 10:18:00,
2013-09-24 03:23:00,45.2,38.4,31.30,SSW,211,0.0,0.0,77,0.00,,---,0.00,VWS V14.01,2013-09-24 10:23:00,
2013-09-24 03:28:00,45.1,38.7,31.30,SW,217,0.0,0.0,78,0.00,,---,0.00,VWS V14.01,2013-09-24 10:28:00,
2013-09-24 03:33:00,44.8,38.4,23.78,SW,217,0.0,0.0,78,0.00,,---,0.00,VWS V14.01,2013-09-24 10:33:00,
2013-09-24 03:38:00,44.8,38.4,23.78,SW,221,0.0,0.0,78,0.00,,---,0.00,VWS V14.01,2013-09-24 10:38:00,
2013-09-24 03:43:00,44.8,38.4,23.78,SW,225,0.0,0.0,78,0.00,,---,0.00,VWS V14.01,2013-09-24 10:43:00,
2013-09-24 03:48:00,44.6,38.5,23.78,SW,224,0.0,0.0,79,0.00,,---,0.00,VWS V14.01,2013-09-24 10:48:00,
2013-09-24 03:54:00,44.6,38.5,23.78,SW,222,0.0,0.0,79,0.00,,---,0.00,VWS V14.01,2013-09-24 10:54:00,
2013-09-24 03:59:00,44.6,38.5,23.78,SW,217,0.0,0.0,79,0.00,,---,0.00,VWS V14.01,2013-09-24 10:59:00,
2013-09-24 04:04:00,45.1,38.7,23.78,WSW,245,0.0,0.0,78,0.00,,---,0.00,VWS V14.01,2013-09-24 11:04:00,
2013-09-24 04:09:00,45.2,38.8,23.78,SW,214,0.0,0.0,78,0.00,,---,0.00,VWS V14.01,2013-09-24 11:09:00,
2013-09-24 04:14:00,45.4,39.0,23.79,SW,232,0.0,0.0,78,0.00,,---,0.00,VWS V14.01,2013-09-24 11:14:00,
2013-09-24 04:19:00,45.4,39.0,23.79,WSW,238,0.0,0.0,78,0.00,,---,0.00,VWS V14.01,2013-09-24 11:19:00,
2013-09-24 04:24:00,45.4,39.0,23.79,SW,221,0.0,0.0,78,0.00,,---,0.00,VWS V14.01,2013-09-24 11:24:00,
2013-09-24 04:29:00,45.2,38.4,23.79,SSW,206,0.0,0.0,77,0.00,,---,0.00,VWS V14.01,2013-09-24 11:29:00,
2013-09-24 04:34:00,44.9,38.5,23.79,South,190,0.0,0.0,78,0.00,,---,0.00,VWS V14.01,2013-09-24 11:34:00,
2013-09-24 04:39:00,45.1,39.0,23.79,South,190,0.0,0.0,79,0.00,,---,0.00,VWS V14.01,2013-09-24 11:39:00,
2013-09-24 04:44:00,45.1,39.3,23.79,South,190,0.0,0.0,80,0.00,,---,0.00,VWS V14.01,2013-09-24 11:44:00,
2013-09-24 04:49:00,44.9,38.8,23.79,SSW,200,0.0,0.0,79,0.00,,---,0.00,VWS V14.01,2013-09-24 11:49:00,
2013-09-24 04:54:00,44.9,39.1,22.45,SSW,199,0.0,0.0,80,0.00,,---,0.00,VWS V14.01,2013-09-24 11:54:00,
2013-09-24 04:59:00,44.8,38.7,22.45,SW,216,0.0,0.0,79,0.00,,---,0.00,VWS V14.01,2013-09-24 11:59:00,
2013-09-24 05:05:00,44.9,38.8,22.45,SW,221,0.0,0.0,79,0.00,,---,0.00,VWS V14.01,2013-09-24 12:05:00,
2013-09-24 05:10:00,44.8,38.7,22.45,SW,220,0.0,0.0,79,0.00,,---,0.00,VWS V14.01,2013-09-24 12:10:00,
2013-09-24 05:15:00,44.8,38.7,22.45,WSW,239,0.0,0.0,79,0.00,,---,0.00,VWS V14.01,2013-09-24 12:15:00,
2013-09-24 05:20:00,44.6,38.5,22.45,SW,236,0.0,0.0,79,0.00,,---,0.00,VWS V14.01,2013-09-24 12:20:00,
2013-09-24 05:25:00,44.6,38.5,22.45,SW,224,0.0,0.0,79,0.00,,---,0.00,VWS V14.01,2013-09-24 12:25:00,
2013-09-24 05:30:00,44.8,38.7,22.45,SW,232,0.0,0.0,79,0.00,,---,0.00,VWS V14.01,2013-09-24 12:30:00,
2013-09-24 05:35:00,44.9,38.5,22.45,SW,217,0.0,0.0,78,0.00,,---,0.00,VWS V14.01,2013-09-24 12:35:00,
2013-09-24 05:40:00,44.8,38.7,23.80,SSW,211,0.0,0.0,79,0.00,,---,0.00,VWS V14.01,2013-09-24 12:40:00,
2013-09-24 05:45:00,44.6,38.5,23.80,SW,221,0.0,0.0,79,0.00,,---,0.00,VWS V14.01,2013-09-24 12:45:00,
2013-09-24 05:50:00,44.6,38.5,23.80,SW,229,0.0,0.0,79,0.00,,---,0.00,VWS V14.01,2013-09-24 12:50:00,
2013-09-24 05:55:00,44.6,38.5,23.80,SSW,206,0.0,0.0,79,0.00,,---,0.00,VWS V14.01,2013-09-24 12:55:00,
2013-09-24 06:00:00,44.3,38.2,23.80,SSW,210,0.0,0.0,79,0.00,,---,0.00,VWS V14.01,2013-09-24 13:00:00,
2013-09-24 06:05:00,44.1,38.0,23.80,SSW,198,0.0,0.0,79,0.00,,---,0.00,VWS V14.01,2013-09-24 13:05:00,
2013-09-24 06:10:00,43.9,38.1,23.80,SSW,210,0.0,0.0,80,0.00,,---,0.00,VWS V14.01,2013-09-24 13:10:00,
2013-09-24 06:16:00,43.9,38.5,23.80,SSW,212,0.0,0.0,81,0.00,,---,0.00,VWS V14.01,2013-09-24 13:16:00,
2013-09-24 06:21:00,44.1,38.7,23.80,SSW,202,0.0,0.0,81,0.00,,---,0.00,VWS V14.01,2013-09-24 13:21:00,
2013-09-24 06:26:00,43.9,38.5,23.80,South,184,0.0,0.0,81,0.00,,---,0.00,VWS V14.01,2013-09-24 13:26:00,
2013-09-24 06:31:00,43.9,38.5,23.80,South,186,0.0,0.0,81,0.00,,---,0.00,VWS V14.01,2013-09-24 13:31:00,
2013-09-24 06:36:00,43.8,38.7,23.80,SSW,199,0.0,0.0,82,0.00,,---,0.00,VWS V14.01,2013-09-24 13:36:00,
2013-09-24 06:41:00,43.9,38.8,23.80,SSW,202,0.0,0.0,82,0.00,,---,0.00,VWS V14.01,2013-09-24 13:41:00,
2013-09-24 06:46:00,43.9,39.1,23.80,SSW,196,0.0,0.0,83,0.00,,---,0.00,VWS V14.01,2013-09-24 13:46:00,
2013-09-24 06:51:00,43.9,39.1,23.80,South,187,0.0,0.0,83,0.00,,---,0.00,VWS V14.01,2013-09-24 13:51:00,
2013-09-24 06:56:00,43.9,39.1,23.80,SSW,192,0.0,0.0,83,0.00,,---,0.00,VWS V14.01,2013-09-24 13:56:00,
2013-09-24 07:01:00,43.8,39.0,23.80,South,188,0.0,0.0,83,0.00,,---,0.00,VWS V14.01,2013-09-24 14:01:00,
2013-09-24 07:06:00,43.8,39.3,23.80,SW,215,0.0,0.0,84,0.00,,---,0.00,VWS V14.01,2013-09-24 14:06:00,
2013-09-24 07:11:00,43.8,39.3,23.80,SW,227,0.0,0.0,84,0.00,,---,0.00,VWS V14.01,2013-09-24 14:11:00,
2013-09-24 07:16:00,43.9,39.4,23.80,SSW,209,0.0,0.0,84,0.00,,---,0.00,VWS V14.01,2013-09-24 14:16:00,
2013-09-24 07:21:00,43.8,39.3,23.80,SSW,210,0.0,0.0,84,0.00,,---,0.00,VWS V14.01,2013-09-24 14:21:00,
2013-09-24 07:26:00,43.8,39.0,23.80,SSW,213,0.0,0.0,83,0.00,,---,0.00,VWS V14.01,2013-09-24 14:26:00,
2013-09-24 07:32:00,44.1,39.3,23.83,SW,222,0.0,0.0,83,0.00,,---,0.00,VWS V14.01,2013-09-24 14:32:00,
2013-09-24 07:37:00,44.1,39.3,23.83,SW,221,0.0,0.0,83,0.00,,---,0.00,VWS V14.01,2013-09-24 14:37:00,
2013-09-24 07:42:00,44.2,39.4,23.83,SSW,202,0.0,0.0,83,0.00,,---,0.00,VWS V14.01,2013-09-24 14:42:00,
2013-09-24 07:47:00,44.3,39.5,23.83,SSW,205,0.0,0.0,83,0.00,,---,0.00,VWS V14.01,2013-09-24 14:47:00,
2013-09-24 07:52:00,44.5,39.7,23.82,SSW,212,0.0,0.0,83,0.00,,---,0.00,VWS V14.01,2013-09-24 14:52:00,
2013-09-24 07:57:00,44.5,39.4,23.82,SW,219,0.0,0.0,82,0.00,,---,0.00,VWS V14.01,2013-09-24 14:57:00,
2013-09-24 08:02:00,44.8,39.7,23.82,SW,229,0.0,0.0,82,0.00,,---,0.00,VWS V14.01,2013-09-24 15:02:00,
2013-09-24 08:07:00,44.9,39.8,23.82,WSW,249,0.0,0.0,82,0.00,,---,0.00,VWS V14.01,2013-09-24 15:07:00,
2013-09-24 08:12:00,45.1,39.6,23.82,West,263,0.0,0.0,81,0.00,,---,0.00,VWS V14.01,2013-09-24 15:12:00,
2013-09-24 08:17:00,45.2,40.0,23.82,West,262,0.0,0.0,82,0.00,,---,0.00,VWS V14.01,2013-09-24 15:17:00,
2013-09-24 08:22:00,44.8,40.0,23.82,WNW,284,0.0,0.0,83,0.00,,---,0.00,VWS V14.01,2013-09-24 15:22:00,
2013-09-24 08:27:00,44.8,40.3,23.82,WNW,291,0.0,0.0,84,0.00,,---,0.00,VWS V14.01,2013-09-24 15:27:00,
2013-09-24 08:33:00,44.6,40.4,23.82,WNW,295,0.0,0.0,85,0.00,,---,0.00,VWS V14.01,2013-09-24 15:33:00,
2013-09-24 08:38:00,44.6,40.7,23.82,WNW,295,0.0,0.0,86,0.00,,---,0.00,VWS V14.01,2013-09-24 15:38:00,
2013-09-24 08:43:00,44.8,40.9,23.82,WNW,294,0.0,0.0,86,0.00,,---,0.00,VWS V14.01,2013-09-24 15:43:00,
2013-09-24 08:48:00,45.1,41.2,23.82,NW,312,0.0,0.0,86,0.00,,---,0.00,VWS V14.01,2013-09-24 15:48:00,
2013-09-24 08:53:00,45.1,41.2,23.82,NW,315,0.0,0.0,86,0.00,,---,0.00,VWS V14.01,2013-09-24 15:53:00,
2013-09-24 08:58:00,44.9,41.0,23.82,NW,311,0.0,0.0,86,0.00,,---,0.00,VWS V14.01,2013-09-24 15:58:00,
2013-09-24 09:03:00,45.1,41.2,23.82,NW,306,0.0,0.0,86,0.00,,---,0.00,VWS V14.01,2013-09-24 16:03:00,
2013-09-24 09:08:00,44.9,41.0,23.82,NW,325,0.0,0.0,86,0.00,,---,0.00,VWS V14.01,2013-09-24 16:08:00,
2013-09-24 09:13:00,44.2,40.6,23.82,North,349,0.0,0.0,87,0.00,,---,0.00,VWS V14.01,2013-09-24 16:13:00,
2013-09-24 09:18:00,44.2,41.2,23.82,North,349,0.0,0.0,89,0.01,,---,0.01,VWS V14.01,2013-09-24 16:18:00,
2013-09-24 09:23:00,44.5,41.5,23.82,North,349,0.0,0.0,89,0.01,,---,0.01,VWS V14.01,2013-09-24 16:23:00,
2013-09-24 09:28:00,44.5,41.8,23.82,NNW,348,0.0,0.0,90,0.01,,---,0.01,VWS V14.01,2013-09-24 16:28:00,
2013-09-24 09:33:00,44.8,42.0,23.82,NNW,327,0.0,0.0,90,0.01,,---,0.01,VWS V14.01,2013-09-24 16:33:00,
2013-09-24 09:38:00,44.6,41.8,23.82,NNW,327,0.0,0.0,90,0.01,,---,0.01,VWS V14.01,2013-09-24 16:38:00,
2013-09-24 09:43:00,44.9,42.2,23.82,NNW,327,0.0,0.0,90,0.01,,---,0.01,VWS V14.01,2013-09-24 16:43:00,
2013-09-24 09:49:00,44.8,42.0,23.82,NNW,327,0.0,0.0,90,0.01,,---,0.01,VWS V14.01,2013-09-24 16:49:00,
2013-09-24 09:54:00,44.6,41.8,23.82,NNW,327,0.0,0.0,90,0.01,,---,0.01,VWS V14.01,2013-09-24 16:54:00,
2013-09-24 09:59:00,44.8,42.0,23.82,NNW,329,0.0,0.0,90,0.01,,---,0.01,VWS V14.01,2013-09-24 16:59:00,
2013-09-24 10:04:00,45.1,42.3,23.82,SSE,159,0.0,0.0,90,0.01,,---,0.01,VWS V14.01,2013-09-24 17:04:00,
2013-09-24 10:09:00,45.2,42.5,23.82,SSW,198,0.0,0.0,90,0.01,,---,0.01,VWS V14.01,2013-09-24 17:09:00,
2013-09-24 10:14:00,44.9,41.0,23.82,SSW,202,0.0,0.0,86,0.01,,---,0.01,VWS V14.01,2013-09-24 17:14:00,
2013-09-24 10:19:00,44.6,39.8,23.82,SSW,207,0.0,0.0,83,0.00,,---,0.01,VWS V14.01,2013-09-24 17:19:00,
2013-09-24 10:24:00,44.6,37.2,23.82,SSW,210,0.0,0.0,75,0.00,,---,0.01,VWS V14.01,2013-09-24 17:24:00,
2013-09-24 10:29:00,45.4,36.9,23.82,SW,220,0.0,0.0,72,0.00,,---,0.01,VWS V14.01,2013-09-24 17:29:00,
2013-09-24 10:34:00,46.0,36.0,23.82,SW,222,0.0,0.0,68,0.00,,---,0.01,VWS V14.01,2013-09-24 17:34:00,
2013-09-24 10:39:00,46.4,37.2,23.82,SSW,202,0.0,0.0,70,0.00,,---,0.01,VWS V14.01,2013-09-24 17:39:00,
2013-09-24 10:44:00,46.8,39.3,23.82,SSW,200,0.0,0.0,75,0.00,,---,0.01,VWS V14.01,2013-09-24 17:44:00,
2013-09-24 10:49:00,46.8,39.3,31.26,SSE,161,0.0,0.0,75,0.00,,---,0.01,VWS V14.01,2013-09-24 17:49:00,
2013-09-24 10:55:00,46.8,38.3,23.81,SSE,166,0.0,0.0,72,0.00,,---,0.01,VWS V14.01,2013-09-24 17:55:00,
2013-09-24 11:00:00,47.1,38.5,31.26,SSW,210,0.0,0.0,72,0.00,,---,0.01,VWS V14.01,2013-09-24 18:00:00,
2013-09-24 11:05:00,47.7,38.8,31.26,WSW,256,0.0,0.0,71,0.00,,---,0.01,VWS V14.01,2013-09-24 18:05:00,
2013-09-24 11:10:00,47.7,36.9,31.26,WSW,257,0.0,0.0,66,0.00,,---,0.01,VWS V14.01,2013-09-24 18:10:00,
2013-09-24 11:15:00,47.9,38.6,31.26,SSW,209,0.0,0.0,70,0.00,,---,0.01,VWS V14.01,2013-09-24 18:15:00,
2013-09-24 11:20:00,47.7,36.1,31.26,WSW,243,0.0,0.0,64,0.00,,---,0.01,VWS V14.01,2013-09-24 18:20:00,
2013-09-24 11:25:00,47.4,35.0,23.81,SW,230,0.0,0.0,62,0.00,,---,0.01,VWS V14.01,2013-09-24 18:25:00,
2013-09-24 11:30:00,47.6,34.8,23.81,SW,235,0.0,0.0,61,0.00,,---,0.01,VWS V14.01,2013-09-24 18:30:00,
2013-09-24 11:35:00,47.4,35.8,23.82,SSW,207,0.0,0.0,64,0.00,,---,0.01,VWS V14.01,2013-09-24 18:35:00,
2013-09-24 11:40:00,47.7,34.9,23.82,SW,217,0.0,0.0,61,0.00,,---,0.01,VWS V14.01,2013-09-24 18:40:00,
2013-09-24 11:45:00,47.9,35.1,23.82,SW,218,0.0,0.0,61,0.00,,---,0.01,VWS V14.01,2013-09-24 18:45:00,
2013-09-24 11:50:00,48.2,34.6,23.82,SW,235,0.0,0.0,59,0.00,,---,0.01,VWS V14.01,2013-09-24 18:50:00,
2013-09-24 11:55:00,47.9,33.8,23.82,WSW,239,0.0,0.0,58,0.00,,---,0.01,VWS V14.01,2013-09-24 18:55:00,
2013-09-24 12:00:00,47.7,33.7,23.82,WSW,246,0.0,0.0,58,0.00,,---,0.01,VWS V14.01,2013-09-24 19:00:00,
2013-09-24 12:05:00,47.7,33.7,23.82,SW,218,0.0,0.0,58,0.00,,---,0.01,VWS V14.01,2013-09-24 19:05:00,
2013-09-24 12:10:00,47.7,33.2,23.82,SW,216,0.0,0.0,57,0.00,,---,0.01,VWS V14.01,2013-09-24 19:10:00,
2013-09-24 12:15:00,47.3,33.3,23.82,WSW,250,0.0,0.0,58,0.00,,---,0.01,VWS V14.01,2013-09-24 19:15:00,
2013-09-24 12:21:00,46.8,35.3,23.82,WSW,242,0.0,0.0,64,0.00,,---,0.01,VWS V14.01,2013-09-24 19:21:00,
2013-09-24 12:26:00,46.5,34.6,23.82,WSW,255,0.0,0.0,63,0.00,,---,0.01,VWS V14.01,2013-09-24 19:26:00,
2013-09-24 12:31:00,47.0,34.7,23.82,West,268,0.0,0.0,62,0.00,,---,0.01,VWS V14.01,2013-09-24 19:31:00,
2013-09-24 12:36:00,47.6,34.8,23.82,WSW,257,0.0,0.0,61,0.00,,---,0.01,VWS V14.01,2013-09-24 19:36:00,
2013-09-24 12:41:00,48.2,35.8,23.82,WSW,240,0.0,0.0,62,0.00,,---,0.01,VWS V14.01,2013-09-24 19:41:00,
2013-09-24 12:46:00,48.6,34.9,23.81,WSW,257,0.0,0.0,59,0.00,,---,0.01,VWS V14.01,2013-09-24 19:46:00,
2013-09-24 12:51:00,49.8,35.6,23.81,WSW,244,0.0,0.0,58,0.00,,---,0.01,VWS V14.01,2013-09-24 19:51:00,
2013-09-24 12:56:00,50.8,35.2,31.84,WNW,296,0.0,0.0,55,0.00,,---,0.01,VWS V14.01,2013-09-24 19:56:00,
2013-09-24 13:01:00,51.3,35.2,31.85,North,5,0.0,0.0,54,0.00,,---,0.01,VWS V14.01,2013-09-24 20:01:00,
2013-09-24 13:06:00,49.9,39.0,28.50,North,355,0.0,0.0,66,0.00,,---,0.01,VWS V14.01,2013-09-24 20:06:00,
2013-09-24 13:11:00,49.4,39.3,28.50,NE,40,0.0,0.0,68,0.00,,---,0.01,VWS V14.01,2013-09-24 20:11:00,
2013-09-24 13:16:00,48.8,39.8,31.26,North,360,0.0,0.0,71,0.00,,---,0.01,VWS V14.01,2013-09-24 20:16:00,
2013-09-24 13:21:00,48.5,39.2,31.26,NNW,338,0.0,0.0,70,0.00,,---,0.01,VWS V14.01,2013-09-24 20:21:00,
2013-09-24 13:26:00,48.6,38.9,31.26,NNE,19,0.0,0.0,69,0.00,,---,0.01,VWS V14.01,2013-09-24 20:26:00,
2013-09-24 13:32:00,48.3,39.0,31.25,NNE,19,0.0,0.0,70,0.00,,---,0.01,VWS V14.01,2013-09-24 20:32:00,
2013-09-24 13:37:00,47.6,39.0,31.25,NNE,24,0.0,0.0,72,0.01,,---,0.02,VWS V14.01,2013-09-24 20:37:00,
2013-09-24 13:42:00,46.5,39.4,31.25,NNE,25,0.0,0.0,76,0.01,,---,0.02,VWS V14.01,2013-09-24 20:42:00,
2013-09-24 13:47:00,46.0,40.2,31.25,NNE,15,0.0,0.0,80,0.02,,---,0.03,VWS V14.01,2013-09-24 20:47:00,
2013-09-24 13:52:00,45.2,40.0,31.25,NNE,26,0.0,0.0,82,0.03,,---,0.04,VWS V14.01,2013-09-24 20:52:00,
2013-09-24 13:57:00,44.8,40.3,31.25,NNE,32,0.0,0.0,84,0.03,,---,0.04,VWS V14.01,2013-09-24 20:57:00,
2013-09-24 14:02:00,44.5,40.3,30.19,NE,54,0.0,0.0,85,0.05,,---,0.06,VWS V14.01,2013-09-24 21:02:00,
2013-09-24 14:07:00,44.5,40.9,28.52,NE,54,0.0,0.0,87,0.07,,---,0.08,VWS V14.01,2013-09-24 21:07:00,
2013-09-24 14:12:00,44.2,40.3,28.52,WNW,294,0.0,0.0,86,0.09,,---,0.10,VWS V14.01,2013-09-24 21:12:00,
2013-09-24 14:17:00,43.6,39.7,30.20,NNW,348,0.0,0.0,86,0.12,,---,0.13,VWS V14.01,2013-09-24 21:17:00,
2013-09-24 14:22:00,44.2,40.9,30.20,North,351,0.0,0.0,88,0.12,,---,0.13,VWS V14.01,2013-09-24 21:22:00,
2013-09-24 14:27:00,44.6,40.7,31.23,North,351,0.0,0.0,86,0.12,,---,0.13,VWS V14.01,2013-09-24 21:27:00,
2013-09-24 14:32:00,45.1,41.2,31.23,North,355,0.0,0.0,86,0.12,,---,0.13,VWS V14.01,2013-09-24 21:32:00,
2013-09-24 14:37:00,45.2,41.0,31.23,North,9,0.0,0.0,85,0.12,,---,0.13,VWS V14.01,2013-09-24 21:37:00,
2013-09-24 14:42:00,45.7,41.8,31.23,North,5,0.0,0.0,86,0.11,,---,0.13,VWS V14.01,2013-09-24 21:42:00,
2013-09-24 14:48:00,45.5,41.3,31.23,North,5,0.0,0.0,85,0.10,,---,0.13,VWS V14.01,2013-09-24 21:48:00,
2013-09-24 14:53:00,45.7,40.5,31.23,North,5,0.0,0.0,82,0.09,,---,0.13,VWS V14.01,2013-09-24 21:53:00,
2013-09-24 14:58:00,45.5,40.3,31.23,North,5,0.0,0.0,82,0.09,,---,0.13,VWS V14.01,2013-09-24 21:58:00,
2013-09-24 15:03:00,45.8,40.9,31.23,NNE,20,0.0,0.0,83,0.08,,---,0.13,VWS V14.01,2013-09-24 22:03:00,
2013-09-24 15:08:00,45.7,39.6,31.23,NNE,19,0.0,0.0,79,0.05,,---,0.13,VWS V14.01,2013-09-24 22:08:00,
2013-09-24 15:13:00,45.5,38.7,31.23,NNE,21,0.0,0.0,77,0.04,,---,0.13,VWS V14.01,2013-09-24 22:13:00,
2013-09-24 15:18:00,45.7,39.9,31.23,NNE,22,0.0,0.0,80,0.01,,---,0.13,VWS V14.01,2013-09-24 22:18:00,
2013-09-24 15:23:00,45.5,38.0,20.77,North,360,0.0,0.0,75,0.00,,---,0.13,VWS V14.01,2013-09-24 22:23:00,
2013-09-24 15:28:00,45.5,37.7,20.77,North,355,0.0,0.0,74,0.00,,---,0.13,VWS V14.01,2013-09-24 22:28:00,
2013-09-24 15:33:00,45.5,37.7,20.77,NW,321,0.0,0.0,74,0.00,,---,0.13,VWS V14.01,2013-09-24 22:33:00,
2013-09-24 15:38:00,45.4,38.0,20.77,NNW,327,0.0,0.0,75,0.00,,---,0.13,VWS V14.01,2013-09-24 22:38:00,
2013-09-24 15:43:00,45.4,38.0,20.77,NNE,26,0.0,0.0,75,0.00,,---,0.13,VWS V14.01,2013-09-24 22:43:00,
2013-09-24 15:48:00,44.9,37.8,20.77,NNE,25,0.0,0.0,76,0.00,,---,0.13,VWS V14.01,2013-09-24 22:48:00,
2013-09-24 15:54:00,44.9,38.1,20.77,NNE,13,0.0,0.0,77,0.01,,---,0.14,VWS V14.01,2013-09-24 22:54:00,
2013-09-24 15:59:00,44.9,38.5,20.77,NNE,13,0.0,0.0,78,0.01,,---,0.14,VWS V14.01,2013-09-24 22:59:00,
2013-09-24 16:04:00,45.4,36.9,19.09,NNE,13,0.0,0.0,72,0.01,,---,0.14,VWS V14.01,2013-09-24 23:04:00,
2013-09-24 16:09:00,45.8,37.0,19.09,NNE,13,0.0,0.0,71,0.01,,---,0.14,VWS V14.01,2013-09-24 23:09:00,
2013-09-24 16:14:00,46.0,36.0,19.09,NNE,13,0.0,0.0,68,0.01,,---,0.14,VWS V14.01,2013-09-24 23:14:00,
2013-09-24 16:19:00,46.0,36.0,19.09,NNE,13,0.0,0.0,68,0.01,,---,0.14,VWS V14.01,2013-09-24 23:19:00,
2013-09-24 16:24:00,46.0,37.1,19.09,NE,56,0.0,0.0,71,0.01,,---,0.14,VWS V14.01,2013-09-24 23:24:00,
2013-09-24 16:29:00,45.8,37.3,19.09,NE,56,0.0,0.0,72,0.01,,---,0.14,VWS V14.01,2013-09-24 23:29:00,
2013-09-24 16:34:00,45.8,37.0,19.09,NE,56,0.0,0.0,71,0.01,,---,0.14,VWS V14.01,2013-09-24 23:34:00,
2013-09-24 16:39:00,46.1,40.0,19.09,NE,56,0.0,0.0,79,0.01,,---,0.14,VWS V14.01,2013-09-24 23:39:00,
2013-09-24 16:44:00,46.1,39.3,31.23,NE,56,0.0,0.0,77,0.01,,---,0.14,VWS V14.01,2013-09-24 23:44:00,
2013-09-24 16:49:00,46.0,38.2,31.23,NE,56,0.0,0.0,74,0.01,,---,0.14,VWS V14.01,2013-09-24 23:49:00,
2013-09-24 16:54:00,46.2,39.7,31.23,WSW,238,0.0,0.0,78,0.01,,---,0.14,VWS V14.01,2013-09-24 23:54:00,
2013-09-24 16:59:00,45.8,38.0,31.23,SSW,211,0.0,0.0,74,0.00,,---,0.14,VWS V14.01,2013-09-24 23:59:00,
2013-09-24 17:04:00,45.7,36.8,31.23,SSW,204,0.0,0.0,71,0.00,,---,0.14,VWS V14.01,2013-09-25 00:04:00,
2013-09-24 17:09:00,45.7,38.2,31.23,SSW,204,0.0,0.0,75,0.00,,---,0.14,VWS V14.01,2013-09-25 00:09:00,
2013-09-24 17:14:00,45.7,38.2,31.23,SSW,196,0.0,0.0,75,0.00,,---,0.14,VWS V14.01,2013-09-25 00:14:00,
2013-09-24 17:19:00,45.4,36.9,31.23,SSW,199,0.0,0.0,72,0.00,,---,0.14,VWS V14.01,2013-09-25 00:19:00,
2013-09-24 17:24:00,45.2,36.7,31.23,SSW,210,0.0,0.0,72,0.00,,---,0.14,VWS V14.01,2013-09-25 00:24:00,
2013-09-24 17:29:00,45.1,37.0,20.48,SW,219,0.0,0.0,73,0.00,,---,0.14,VWS V14.01,2013-09-25 00:29:00,
2013-09-24 17:35:00,45.1,37.7,20.48,SW,218,0.0,0.0,75,0.00,,---,0.14,VWS V14.01,2013-09-25 00:35:00,
2013-09-24 17:40:00,44.9,36.1,30.21,SW,222,0.0,0.0,71,0.00,,---,0.14,VWS V14.01,2013-09-25 00:40:00,
2013-09-24 17:45:00,45.1,35.9,28.53,SSW,213,0.0,0.0,70,0.00,,---,0.14,VWS V14.01,2013-09-25 00:45:00,
2013-09-24 17:50:00,45.2,36.4,28.53,SW,227,0.0,0.0,71,0.00,,---,0.14,VWS V14.01,2013-09-25 00:50:00,
2013-09-24 17:55:00,45.2,36.7,28.53,SSW,194,0.0,0.0,72,0.00,,---,0.14,VWS V14.01,2013-09-25 00:55:00,
2013-09-24 18:00:00,45.2,36.7,28.53,SW,220,0.0,0.0,72,0.00,,---,0.14,VWS V14.01,2013-09-25 01:00:00,
2013-09-24 18:05:00,45.2,37.4,28.53,SSW,197,0.0,0.0,74,0.00,,---,0.14,VWS V14.01,2013-09-25 01:05:00,
2013-09-24 18:10:00,45.2,35.7,28.53,WNW,286,0.0,0.0,69,0.00,,---,0.14,VWS V14.01,2013-09-25 01:10:00,
2013-09-24 18:15:00,45.4,36.2,30.21,WNW,289,0.0,0.0,70,0.00,,---,0.14,VWS V14.01,2013-09-25 01:15:00,
2013-09-24 18:20:00,45.2,36.7,30.21,NNW,346,0.0,0.0,72,0.00,,---,0.14,VWS V14.01,2013-09-25 01:20:00,
2013-09-24 18:25:00,44.6,36.2,30.21,NNE,30,0.0,0.0,72,0.00,,---,0.14,VWS V14.01,2013-09-25 01:25:00,
2013-09-24 18:30:00,44.2,36.1,30.21,NE,38,0.0,0.0,73,0.00,,---,0.14,VWS V14.01,2013-09-25 01:30:00,
2013-09-24 18:35:00,43.9,35.8,30.21,NE,39,0.0,0.0,73,0.00,,---,0.14,VWS V14.01,2013-09-25 01:35:00,
2013-09-24 18:40:00,43.6,36.2,30.21,NE,39,0.0,0.0,75,0.00,,---,0.14,VWS V14.01,2013-09-25 01:40:00,
2013-09-24 18:46:00,43.5,35.8,30.21,NE,38,0.0,0.0,74,0.00,,---,0.14,VWS V14.01,2013-09-25 01:46:00,
2013-09-24 18:51:00,43.1,35.4,30.21,NE,36,0.0,0.0,74,0.00,,---,0.14,VWS V14.01,2013-09-25 01:51:00,
2013-09-24 18:56:00,42.8,34.8,30.21,NE,36,0.0,0.0,73,0.00,,---,0.14,VWS V14.01,2013-09-25 01:56:00,
2013-09-24 19:01:00,42.8,34.8,22.17,NE,36,0.0,0.0,73,0.00,,---,0.14,VWS V14.01,2013-09-25 02:01:00,
2013-09-24 19:06:00,42.6,34.9,22.16,ENE,58,0.0,0.0,74,0.00,,---,0.14,VWS V14.01,2013-09-25 02:06:00,
2013-09-24 19:11:00,42.5,34.8,22.16,ENE,59,0.0,0.0,74,0.00,,---,0.14,VWS V14.01,2013-09-25 02:11:00,
2013-09-24 19:16:00,42.5,35.8,31.22,ENE,59,0.0,0.0,77,0.00,,---,0.14,VWS V14.01,2013-09-25 02:16:00,
2013-09-24 19:21:00,42.3,35.6,31.22,ENE,59,0.0,0.0,77,0.00,,---,0.14,VWS V14.01,2013-09-25 02:21:00,
2013-09-24 19:26:00,42.1,35.4,23.85,ENE,59,0.0,0.0,77,0.00,,---,0.14,VWS V14.01,2013-09-25 02:26:00,
2013-09-24 19:31:00,42.2,36.5,23.85,ENE,76,0.0,0.0,80,0.00,,---,0.14,VWS V14.01,2013-09-25 02:31:00,
2013-09-24 19:36:00,42.1,36.1,23.85,SE,128,0.0,0.0,79,0.00,,---,0.14,VWS V14.01,2013-09-25 02:36:00,
2013-09-24 19:41:00,41.9,36.2,23.85,SE,126,0.0,0.0,80,0.00,,---,0.14,VWS V14.01,2013-09-25 02:41:00,
2013-09-24 19:46:00,41.8,36.1,23.85,SE,126,0.0,0.0,80,0.00,,---,0.14,VWS V14.01,2013-09-25 02:46:00,
2013-09-24 19:51:00,41.8,36.1,23.85,SE,126,0.0,0.0,80,0.00,,---,0.14,VWS V14.01,2013-09-25 02:51:00,
2013-09-24 19:56:00,41.8,36.1,23.85,SE,126,0.0,0.0,80,0.00,,---,0.14,VWS V14.01,2013-09-25 02:56:00,
2013-09-24 20:02:00,41.9,36.2,23.85,SE,126,0.0,0.0,80,0.00,,---,0.14,VWS V14.01,2013-09-25 03:02:00,
2013-09-24 20:07:00,41.8,35.8,23.85,SE,126,0.0,0.0,79,0.00,,---,0.14,VWS V14.01,2013-09-25 03:07:00,
2013-09-24 20:12:00,41.8,35.8,23.85,SSW,200,0.0,0.0,79,0.00,,---,0.14,VWS V14.01,2013-09-25 03:12:00,
2013-09-24 20:17:00,41.9,35.5,23.85,South,187,0.0,0.0,78,0.00,,---,0.14,VWS V14.01,2013-09-25 03:17:00,
2013-09-24 20:22:00,41.5,34.5,23.85,South,186,0.0,0.0,76,0.00,,---,0.14,VWS V14.01,2013-09-25 03:22:00,
2013-09-24 20:27:00,41.5,35.5,23.85,ESE,113,0.0,0.0,79,0.00,,---,0.14,VWS V14.01,2013-09-25 03:27:00,
2013-09-24 20:32:00,41.1,35.1,18.81,East,94,0.0,0.0,79,0.00,,---,0.14,VWS V14.01,2013-09-25 03:32:00,
2013-09-24 20:37:00,40.9,34.9,18.81,East,96,0.0,0.0,79,0.00,,---,0.14,VWS V14.01,2013-09-25 03:37:00,
2013-09-24 20:42:00,40.8,34.8,18.81,East,86,0.0,0.0,79,0.00,,---,0.14,VWS V14.01,2013-09-25 03:42:00,
2013-09-24 20:47:00,40.6,34.9,18.81,East,99,0.0,0.0,80,0.00,,---,0.14,VWS V14.01,2013-09-25 03:47:00,
2013-09-24 20:52:00,40.5,35.1,18.81,East,90,0.0,0.0,81,0.00,,---,0.14,VWS V14.01,2013-09-25 03:52:00,
2013-09-24 20:57:00,40.3,35.6,17.13,East,86,0.0,0.0,83,0.00,,---,0.14,VWS V14.01,2013-09-25 03:57:00,
2013-09-24 21:01:00,40.2,35.5,17.13,East,86,0.0,0.0,83,0.00,,---,0.14,VWS V14.01,2013-09-25 04:01:00,
2013-09-24 21:02:00,40.2,35.5,17.13,East,86,0.0,0.0,83,0.00,,---,0.14,VWS V14.01,2013-09-25 04:02:00,
2013-09-24 21:04:00,40.2,35.8,17.13,East,86,0.0,0.0,84,0.00,,---,0.14,VWS V14.01,2013-09-25 04:04:00,
2013-09-24 21:05:00,40.1,35.7,17.13,East,86,0.0,0.0,84,0.00,,---,0.14,VWS V14.01,2013-09-25 04:05:00,
2013-09-24 21:11:00,39.9,35.5,18.81,NE,51,0.0,0.0,84,0.00,,---,0.14,VWS V14.01,2013-09-25 04:11:00,
2013-09-24 21:16:00,39.8,35.7,18.81,NE,51,0.0,0.0,85,0.00,,---,0.14,VWS V14.01,2013-09-25 04:16:00,
2013-09-24 21:21:00,39.6,35.5,18.81,ENE,57,0.0,0.0,85,0.00,,---,0.14,VWS V14.01,2013-09-25 04:21:00,
2013-09-24 21:26:00,39.5,35.4,18.81,ENE,71,0.0,0.0,85,0.00,,---,0.14,VWS V14.01,2013-09-25 04:26:00,
2013-09-24 21:31:00,39.3,34.9,18.81,ENE,70,0.0,0.0,84,0.00,,---,0.14,VWS V14.01,2013-09-25 04:31:00,
2013-09-24 21:36:00,39.3,35.2,18.81,ENE,71,0.0,0.0,85,0.00,,---,0.14,VWS V14.01,2013-09-25 04:36:00,
2013-09-24 21:41:00,39.2,35.1,18.81,ENE,71,0.0,0.0,85,0.00,,---,0.14,VWS V14.01,2013-09-25 04:41:00,
2013-09-24 21:46:00,39.2,35.1,18.81,ENE,71,0.0,0.0,85,0.00,,---,0.14,VWS V14.01,2013-09-25 04:46:00,
2013-09-24 21:51:00,39.2,35.1,18.81,ENE,71,0.0,0.0,85,0.00,,---,0.14,VWS V14.01,2013-09-25 04:51:00,
2013-09-24 21:56:00,39.2,35.1,18.81,East,82,0.0,0.0,85,0.00,,---,0.14,VWS V14.01,2013-09-25 04:56:00,
2013-09-24 22:01:00,39.2,35.1,22.17,East,99,0.0,0.0,85,0.00,,---,0.14,VWS V14.01,2013-09-25 05:01:00,
2013-09-24 22:06:00,39.2,35.1,22.17,ESE,115,0.0,0.0,85,0.00,,---,0.14,VWS V14.01,2013-09-25 05:06:00,
2013-09-24 22:11:00,39.2,35.1,23.85,ESE,117,0.0,0.0,85,0.00,,---,0.14,VWS V14.01,2013-09-25 05:11:00,
2013-09-24 22:16:00,39.2,35.1,23.85,ESE,114,0.0,0.0,85,0.00,,---,0.14,VWS V14.01,2013-09-25 05:16:00,
2013-09-24 22:21:00,39.3,35.2,23.85,ESE,121,0.0,0.0,85,0.00,,---,0.14,VWS V14.01,2013-09-25 05:21:00,
2013-09-24 22:27:00,39.2,35.1,23.85,ESE,120,0.0,0.0,85,0.00,,---,0.14,VWS V14.01,2013-09-25 05:27:00,
2013-09-24 22:32:00,39.2,35.1,23.85,ESE,119,0.0,0.0,85,0.00,,---,0.14,VWS V14.01,2013-09-25 05:32:00,
2013-09-24 22:37:00,39.1,35.0,23.85,ESE,119,0.0,0.0,85,0.00,,---,0.14,VWS V14.01,2013-09-25 05:37:00,
2013-09-24 22:42:00,39.2,35.1,23.85,ESE,119,0.0,0.0,85,0.00,,---,0.14,VWS V14.01,2013-09-25 05:42:00,
2013-09-24 22:47:00,39.3,35.2,23.85,ESE,123,0.0,0.0,85,0.00,,---,0.14,VWS V14.01,2013-09-25 05:47:00,
2013-09-24 22:52:00,39.5,35.4,23.85,ESE,123,0.0,0.0,85,0.00,,---,0.14,VWS V14.01,2013-09-25 05:52:00,
2013-09-24 22:57:00,39.5,35.4,31.21,ESE,123,0.0,0.0,85,0.00,,---,0.14,VWS V14.01,2013-09-25 05:57:00,
2013-09-24 23:02:00,39.3,35.2,31.21,ESE,123,0.0,0.0,85,0.00,,---,0.14,VWS V14.01,2013-09-25 06:02:00,
2013-09-24 23:07:00,39.1,35.3,31.21,ESE,123,0.0,0.0,86,0.00,,---,0.14,VWS V14.01,2013-09-25 06:07:00,
2013-09-24 23:12:00,38.9,34.8,31.21,ESE,123,0.0,0.0,85,0.00,,---,0.14,VWS V14.01,2013-09-25 06:12:00,
2013-09-24 23:17:00,38.9,34.8,31.21,ESE,123,0.0,0.0,85,0.00,,---,0.14,VWS V14.01,2013-09-25 06:17:00,
2013-09-24 23:22:00,38.8,35.0,31.21,ESE,123,0.0,0.0,86,0.00,,---,0.14,VWS V14.01,2013-09-25 06:22:00,
2013-09-24 23:27:00,38.9,35.1,31.21,ESE,123,0.0,0.0,86,0.00,,---,0.14,VWS V14.01,2013-09-25 06:27:00,
2013-09-24 23:32:00,38.9,35.1,31.21,ESE,123,0.0,0.0,86,0.00,,---,0.14,VWS V14.01,2013-09-25 06:32:00,
2013-09-24 23:37:00,38.8,35.0,31.21,South,170,0.0,0.0,86,0.00,,---,0.14,VWS V14.01,2013-09-25 06:37:00,
2013-09-24 23:42:00,38.8,34.4,29.52,South,188,0.0,0.0,84,0.00,,---,0.14,VWS V14.01,2013-09-25 06:42:00,
2013-09-24 23:47:00,38.8,34.1,27.84,South,185,0.0,0.0,83,0.00,,---,0.14,VWS V14.01,2013-09-25 06:47:00,
2013-09-24 23:53:00,38.8,34.1,27.84,South,183,0.0,0.0,83,0.00,,---,0.14,VWS V14.01,2013-09-25 06:53:00,
2013-09-24 23:58:00,38.8,34.1,27.84,South,190,0.0,0.0,83,0.00,,---,0.14,VWS V14.01,2013-09-25 06:58:00,